This is the latest recevied weather packets stored in our database for station/object DK4MDA-13. If no packets are shown the sender has not sent any weather packets the latest 1 day(s).
| Time | Temp. | Humidity | Pressure | Rain* | Wind** | Luminosity | Snow |
|---|---|---|---|---|---|---|---|
| 1777999329 | 16.11° C | 81% | 1007.8 hPa | 0 mm | 2.68 m/s, 36° | - | - |
| 1777999029 | 16.11° C | 82% | 1007.8 hPa | 0 mm | 2.68 m/s, 21° | - | - |
| 1777998729 | 16.11° C | 82% | 1007.7 hPa | 0 mm | 2.68 m/s, 26° | - | - |
| 1777998429 | 16.11° C | 83% | 1007.8 hPa | 0 mm | 3.13 m/s, 6° | - | - |
| 1777998129 | 16.11° C | 82% | 1007.9 hPa | 0 mm | 3.13 m/s, 4° | - | - |
| 1777997829 | 16.11° C | 82% | 1007.8 hPa | 0 mm | 2.68 m/s, 26° | - | - |
| 1777997529 | 16.11° C | 83% | 1007.9 hPa | 0 mm | 2.24 m/s, 36° | - | - |
| 1777997229 | 16.11° C | 83% | 1007.9 hPa | 0 mm | 2.68 m/s, 351° | - | - |
| 1777996929 | 16.11° C | 82% | 1007.9 hPa | 0 mm | 3.13 m/s, 2° | - | - |
| 1777996629 | 16.67° C | 81% | 1007.9 hPa | 0 mm | 3.13 m/s, 38° | - | - |
| 1777996329 | 16.67° C | 82% | 1007.9 hPa | 0 mm | 2.68 m/s, 26° | - | - |
| 1777996029 | 16.67° C | 82% | 1008 hPa | 0 mm | 2.24 m/s, 26° | - | - |
| 1777995729 | 16.67° C | 82% | 1007.9 hPa | 0 mm | 2.24 m/s, 31° | - | - |
| 1777995429 | 16.67° C | 81% | 1007.9 hPa | 0 mm | 2.24 m/s, 26° | - | - |
| 1777995129 | 16.67° C | 81% | 1008 hPa | 0 mm | 2.24 m/s, 21° | - | - |
| 1777994829 | 16.67° C | 81% | 1008 hPa | 0 mm | 2.24 m/s, 42° | - | - |
| 1777994529 | 16.67° C | 81% | 1008 hPa | 0 mm | 2.68 m/s, 354° | - | - |
| 1777994229 | 16.67° C | 80% | 1008 hPa | 0 mm | 2.68 m/s, 15° | - | - |
| 1777993929 | 16.67° C | 79% | 1008 hPa | 0 mm | 2.24 m/s, 21° | - | - |
| 1777993629 | 16.67° C | 80% | 1008.1 hPa | 0 mm | 2.68 m/s, 4° | - | - |
| 1777993329 | 16.67° C | 80% | 1008.1 hPa | 0 mm | 2.68 m/s, 26° | - | - |
| 1777993029 | 17.22° C | 79% | 1008.2 hPa | 0 mm | 2.68 m/s, 26° | - | - |
| 1777992729 | 17.22° C | 81% | 1008.1 hPa | 0 mm | 2.68 m/s, 358° | - | - |
| 1777992430 | 17.22° C | 80% | 1008.3 hPa | 0 mm | 2.68 m/s, 26° | - | - |
| 1777992129 | 16.67° C | 81% | 1008.2 hPa | 0 mm | 3.13 m/s, 17° | - | - |
* Rain latest hour (hover to see other rain measurements)
** Current wind speed in m/s (hover to see current wind gust speed)